Ketchikan, AK

2:47 AM AKST on January 21, 2019 (GMT -0900)
Ketchikan International

Weather History for PAKT - November, 2018

Change the Weather History Date:

Tuesday, November 6, 2018

  Actual Average Record
Temperature  
Mean Temperature 39 °F -  
Max Temperature 46 °F 46 °F 63 °F (1962)
Min Temperature 32 °F 35 °F 19 °F (1973)
Degree Days  
Heating Degree Days 26    
Moisture  
Dew Point 33 °F    
Average Humidity 80    
Maximum Humidity 96    
Minimum Humidity 58    
Precipitation  
Precipitation 0.00 in - - ()
Sea Level Pressure  
Sea Level Pressure 30.33 in    
Wind  
Wind Speed 7 mph (NW)    
Max Wind Speed 12 mph    
Max Gust Speed -    
Visibility 8 miles    
Events Fog    
Averages and records for this station are not official NWS values.
T = Trace of Precipitation, MM = Missing Value Source: NWS Daily Summary

Daily Weather History Graph

Daily Weather History Graph

Search for Another Location

Airport or City:

Astronomy

Nov. 06, 2018 Rise Set
Actual Time 7:02 AM AKST 3:57 PM AKST
Civil Twilight 6:22 AM AKST 4:37 PM AKST
Nautical Twilight 5:38 AM AKST 5:21 PM AKST
Astronomical Twilight 4:56 AM AKST 6:03 PM AKST
Moon 5:26 AM AKST (11/6) 4:12 PM AKST (11/6)
Length of Visible Light 10h 14m
Length of Day
8h 55m
Waning Crescent, 1% of the Moon is Illuminated
Nov 6
Waning Crescent
Nov 7
New
Nov 15
First Quarter
Nov 22
Full
Nov 29
Last Quarter

Hourly Weather History & Observations

Time (AKST) Temp. Windchill Dew Point Humidity Pressure Visibility Wind Dir Wind Speed Gust Speed Precip Events Conditions
12:03 AM 41.0 °F 36.4 °F 35.1 °F 79% 30.15 in 10.0 mi WNW 6.9 mph - N/A   Overcast
12:53 AM 41.0 °F 36.4 °F 35.1 °F 79% 30.17 in 10.0 mi NW 6.9 mph - N/A   Overcast
1:32 AM 41.0 °F 35.8 °F 35.1 °F 79% 30.18 in 10.0 mi WNW 8.1 mph - 0.00 in   Overcast
1:53 AM 41.0 °F 35.2 °F 35.1 °F 79% 30.18 in 10.0 mi NW 9.2 mph - 0.00 in   Overcast
2:09 AM 41.0 °F 36.4 °F 35.1 °F 79% 30.18 in 10.0 mi WNW 6.9 mph - N/A   Overcast
2:53 AM 41.0 °F 34.7 °F 34.0 °F 76% 30.19 in 10.0 mi NW 10.4 mph - N/A   Overcast
3:53 AM 41.0 °F 34.7 °F 35.1 °F 79% 30.21 in 10.0 mi WNW 10.4 mph - N/A   Overcast
4:53 AM 41.0 °F 35.2 °F 35.1 °F 79% 30.23 in 10.0 mi WNW 9.2 mph - N/A   Overcast
5:53 AM 41.0 °F 35.2 °F 34.0 °F 76% 30.24 in 10.0 mi WNW 9.2 mph - N/A   Overcast
6:53 AM 39.2 °F 34.2 °F 33.8 °F 81% 30.26 in 10.0 mi WNW 6.9 mph - N/A   Mostly Cloudy
7:53 AM 41.0 °F 35.2 °F 33.8 °F 76% 30.28 in 10.0 mi NW 9.2 mph - N/A   Scattered Clouds
8:53 AM 42.8 °F 38.6 °F 33.8 °F 70% 30.30 in 10.0 mi WNW 6.9 mph - N/A   Partly Cloudy
9:53 AM 44.1 °F 38.6 °F 34.0 °F 68% 30.32 in 10.0 mi NNW 10.4 mph - N/A   Partly Cloudy
10:53 AM 44.6 °F 38.8 °F 33.8 °F 66% 30.34 in 10.0 mi NNW 11.5 mph - N/A   Partly Cloudy
11:53 AM 45.0 °F 40.1 °F 33.1 °F 63% 30.35 in 10.0 mi NW 9.2 mph - N/A   Partly Cloudy
12:53 PM 46.0 °F 41.0 °F 32.0 °F 58% 30.37 in 10.0 mi NW 10.4 mph - N/A   Clear
1:53 PM 45.0 °F 39.7 °F 30.9 °F 58% 30.37 in 10.0 mi WNW 10.4 mph - N/A   Clear
2:53 PM 44.1 °F 39.5 °F 32.0 °F 63% 30.38 in 10.0 mi NW 8.1 mph - N/A   Clear
3:53 PM 43.0 °F 38.8 °F 32.0 °F 65% 30.39 in 10.0 mi NNW 6.9 mph - N/A   Clear
4:53 PM 39.9 °F 35.8 °F 30.9 °F 70% 30.39 in 10.0 mi NNW 5.8 mph - N/A   Clear
5:53 PM 37.4 °F 34.9 °F 35.6 °F 93% 30.40 in 10.0 mi WNW 3.5 mph - N/A   Clear
6:53 PM 35.1 °F 32.2 °F 32.0 °F 89% 30.42 in 10.0 mi West 3.5 mph - N/A   Clear
7:53 PM 34.0 °F - 32.0 °F 92% 30.42 in 10.0 mi Calm Calm - N/A   Clear
8:53 PM 32.0 °F - 30.9 °F 96% 30.42 in 10.0 mi Calm Calm - N/A   Clear
9:53 PM 33.1 °F - 30.9 °F 92% 30.42 in 10.0 mi Calm Calm - N/A   Clear
10:53 PM 32.0 °F - 30.0 °F 92% 30.43 in 10.0 mi Calm Calm - N/A   Clear
11:20 PM 32.0 °F 28.7 °F 28.9 °F 88% 30.43 in 1.8 mi WNW 3.5 mph - N/A   Scattered Clouds
11:25 PM 33.1 °F 30.0 °F 30.9 °F 92% 30.44 in 0.2 mi WNW 3.5 mph - N/A Fog Fog
11:34 PM 34.0 °F 31.0 °F 32.0 °F 92% 30.44 in 0.2 mi WNW 3.5 mph - N/A Fog Fog
11:46 PM 33.1 °F 30.0 °F 32.0 °F 96% 30.44 in 0.5 mi WNW 3.5 mph - N/A Fog Fog
11:51 PM 33.8 °F 30.8 °F 32.0 °F 93% 30.44 in 2.5 mi WNW 3.5 mph - N/A   Mostly Cloudy
11:53 PM 33.1 °F 28.7 °F 32.0 °F 96% 30.44 in 6.0 mi NW 4.6 mph - N/A   Mostly Cloudy